カタログに戻る

STARLINK-33867

運用中通信VLEO
NORAD 63795·PAYLOAD·🇺🇸 United States

打ち上げ May 2, 2025 から Cape Canaveral Space Force Station

Loading…

次のパス (今後24時間)

TLE

最新Source: CelesTrak SupGP

元期: Sep 14, 2026, 22:57 UTC

1 63795C 25091W   26257.95673611  .00052586  00000+0  19045-2 0  2570
2 63795  43.0015  63.8141 0001701 273.7452 176.2213 15.27554781    15

AllMySatでSTARLINK-33867をリアルタイム追跡

Download on the App Store